This is the latest recevied weather packets stored in our database for station/object KB0Y. If no packets are shown the sender has not sent any weather packets the latest 10 day(s).
| Time | Temp. | Humidity | Pressure | Rain* | Wind** | Luminosity | Snow |
|---|---|---|---|---|---|---|---|
| 1777485754 | 30.56° C | 48% | 1017.2 hPa | 0 mm | - | 495 W/m² | - |
| 1777485450 | 30.56° C | 50% | 1017.6 hPa | 0 mm | - | 524 W/m² | - |
| 1777485146 | 30.56° C | 50% | 1017.6 hPa | 0 mm | - | 417 W/m² | - |
| 1777484842 | 30.56° C | 51% | 1017.6 hPa | 0 mm | - | 559 W/m² | - |
| 1777484540 | 30.56° C | 49% | 1017.6 hPa | 0 mm | - | 520 W/m² | - |
| 1777484237 | 30.56° C | 52% | 1017.9 hPa | 0 mm | - | 511 W/m² | - |
| 1777483933 | 30.56° C | 50% | 1017.9 hPa | 0 mm | - | 511 W/m² | - |
| 1777483629 | 30.56° C | 51% | 1018.3 hPa | 0 mm | - | 494 W/m² | - |
| 1777483324 | 30.56° C | 51% | 1018.3 hPa | 0 mm | - | 506 W/m² | - |
| 1777483020 | 30° C | 51% | 1018.6 hPa | 0 mm | - | 492 W/m² | - |
| 1777482717 | 30° C | 51% | 1018.3 hPa | 0 mm | - | 498 W/m² | - |
| 1777482413 | 29.44° C | 53% | 1018.3 hPa | 0 mm | - | 498 W/m² | - |
| 1777482111 | 29.44° C | 54% | 1018.3 hPa | 0 mm | - | 497 W/m² | - |
| 1777481809 | 28.89° C | 53% | 1018.6 hPa | 0 mm | - | 495 W/m² | - |
| 1777481505 | 28.89° C | 56% | 1018.6 hPa | 0 mm | - | 498 W/m² | - |
| 1777481202 | 28.89° C | 58% | 1018.9 hPa | 0 mm | - | 417 W/m² | - |
| 1777480899 | 28.89° C | 58% | 1018.9 hPa | 0 mm | - | 270 W/m² | - |
| 1777480595 | 28.89° C | 59% | 1018.9 hPa | 0 mm | - | 525 W/m² | - |
| 1777480292 | 28.89° C | 57% | 1019.3 hPa | 0 mm | - | 382 W/m² | - |
| 1777479988 | 28.89° C | 62% | 1019.3 hPa | 0 mm | - | 475 W/m² | - |
| 1777479685 | 28.33° C | 63% | 1019.6 hPa | 0 mm | - | 468 W/m² | - |
| 1777479384 | 28.33° C | 65% | 1019.3 hPa | 0 mm | - | 463 W/m² | - |
| 1777479079 | 27.78° C | 64% | 1019.6 hPa | 0 mm | - | 463 W/m² | - |
| 1777478776 | 27.78° C | 65% | 1020 hPa | 0 mm | - | 462 W/m² | - |
| 1777478472 | 27.78° C | 67% | 1020 hPa | 0 mm | - | 287 W/m² | - |
* Rain latest hour (hover to see other rain measurements)
** Current wind speed in m/s (hover to see current wind gust speed)